DECAYED

STARLINK-1344, 45559 (Decayed)

Orbit data source: Space-Track

STARLINK-1344, 45559 was a payload satellite owned by SpaceX/Seattle (US) in LEO that was launched on Wed, 22 Apr 2020 UTC via an FALCON 9 launch vehicle from the Air Force Eastern Test Range (AFETR). Payloads include a variety of satellites, spacecraft, and rockets equipped with specific instruments for various scientific and technological missions. These include communications satellites like Starlink; space stations such as the ISS; scientific satellites like the Hubble; Earth observation satellites from companies like Planet Labs, Umbra, and HawkEye 360; GPS; miniature CubeSats for education and research; and military/defense satellites.

Not visible in the next 10 days
STARLINK-1344 details
Identifier
45559, 2020-025AE
Orbit
Decayed
Last TLE update3 months ago
Origin
Flag of USSpaceX/Seattle (US)
ManufacturerSpaceX/Seattle
MissionDecayed Commercial Communications
Bus & MotorSTARLINK, Unknown motor
Mass260 kg wet, ~248 kg dry
Launch date (UTC)
2020-04-22 (5 years ago)
Launch vehicle
FALCON 9
Launch site
Air Force Eastern Test Range (AFETR)
Object type
Payload
Rocket body
Debris
Shape & HBRBox + 1 Pan, 8.86 m
Radar Cross Section13.562 m², Large (>1 m²)

Expand to show TLE details & history

TLE from 3 months ago
0 STARLINK-1344
1 45559U 20025AE  24263.23564557  .50767146  12444-4  28122-2 0  9993
2 45559  53.0305 261.0035 0002167 317.5301 151.2564 16.42191516244942
Epoch: 2024-09-19T05:39Z
Definitive object data (Epoch: 2024-09-19T05:39:19.777Z)
Latitude49.29724°
Longitude-62.9115°
Altitude166.821 km
Speed7.812 km/s
True Right ascension01h 22m 10s
True Declination49° 06' 42"
Sunlit
Object was in full shadow at TLE epoch
Visualization observer readout
Observer readout values are unavailable because the object's trajectory could not be propagated. This is usually caused when the trajectory data is faulty or the object's orbit has decayed.
Visualization observer readout
Observer readout values are unavailable because the object's trajectory could not be propagated. This is usually caused when the trajectory data is faulty or the object's orbit has decayed.
Orbital elements
Apogee altitude161.686 km
Perigee altitude158.853 km
Semi-major axis6,538.407 km
Eccentricity0.0002167
Inclination53.0305°
RAAN261.0035°
Arg. of periapsis317.5301°
True anomaly151.26834°
Mean anomaly151.2564°
Eccentric anomaly151.26237°
Mean motion4.10521 °/min
BSTAR0.0028122
Orbital period87.69 mins
Loading maneuver chart data...
Loading historical data...
Loading historical data...
Loading historical data...
Loading historical data...
Loading historical data...
Loading historical data...
Loading historical data...

STARLINK-1344 Visibility forecast

Observer location: undefined°, undefined

This satellite is decayed
Span
Click to sort rows by Start time (UTC) header in descending order
Start Az.
Max El. time (UTC)
Max El. Az.
Max El.
End time (UTC)
End Az.
|